• In Hungary
  • List of Countries
  • For 7 days
  • Water Temperature
  • Satellite Maps
  • Weather Map
  • News
  • Weather Widgets
  • user-avatar
    Login

    Hourly Weather Oruro

    Today, 20 February, Tuesday

    Time Temperature Precipitation Wind Pressure Humidity
    00:00 +9°C° 0 mm 2 mps 474 mmHg 54%
    01:00 +8°C° 0 mm 2 mps 474 mmHg 59%
    02:00 +9°C° 0 mm 1 mps 474 mmHg 63%
    03:00 +8°C° 0 mm 1 mps 474 mmHg 65%
    04:00 +8°C° 0 mm 1 mps 473 mmHg 67%
    05:00 +7°C° 0 mm 1 mps 473 mmHg 69%
    06:00 +8°C° 0 mm 1 mps 474 mmHg 65%
    07:00 +9°C° 0 mm 1 mps 475 mmHg 61%
    08:00 +10°C° 0 mm 1 mps 476 mmHg 57%
    09:00 +11°C° 0 mm 1 mps 476 mmHg 50%
    10:00 +13°C° 0 mm 1 mps 477 mmHg 43%
    11:00 +14°C° 0 mm 1 mps 478 mmHg 36%
    12:00 +15°C° 0 mm 1 mps 478 mmHg 33%
    13:00 +16°C° 0 mm 2 mps 478 mmHg 29%
    14:00 +18°C° 0 mm 3 mps 478 mmHg 26%
    15:00 +18°C° 0 mm 3 mps 478 mmHg 26%
    16:00 +18°C° 0 mm 3 mps 478 mmHg 26%
    17:00 +18°C° 0 mm 4 mps 477 mmHg 26%
    18:00 +15°C° 0 mm 4 mps 477 mmHg 32%
    19:00 +14°C° 0 mm 4 mps 476 mmHg 37%
    20:00 +12°C° 0 mm 4 mps 476 mmHg 43%
    21:00 +12°C° 0 mm 4 mps 476 mmHg 48%
    22:00 +11°C° 0 mm 4 mps 476 mmHg 53%
    23:00 +10°C° 0 mm 4 mps 476 mmHg 58%

    Tomorrow, 21 February, Wednesday

    Time Temperature Precipitation Wind Pressure Humidity
    00:00 +9°C° 0 mm 3 mps 476 mmHg 61%
    01:00 +9°C° 0 mm 3 mps 475 mmHg 64%
    02:00 +9°C° 0 mm 2 mps 475 mmHg 67%
    03:00 +8°C° 0 mm 2 mps 475 mmHg 70%
    04:00 +8°C° 0 mm 2 mps 475 mmHg 73%
    05:00 +7°C° 0 mm 2 mps 474 mmHg 76%
    06:00 +8°C° 0 mm 2 mps 475 mmHg 73%
    07:00 +8°C° 0 mm 3 mps 476 mmHg 70%
    08:00 +9°C° 0 mm 3 mps 477 mmHg 67%
    09:00 +10°C° 0 mm 4 mps 477 mmHg 60%
    10:00 +11°C° 0 mm 4 mps 478 mmHg 53%
    11:00 +13°C° 0 mm 5 mps 479 mmHg 46%
    12:00 +14°C° 0.1 mm 5 mps 479 mmHg 44%
    13:00 +14°C° 0.1 mm 5 mps 479 mmHg 42%
    14:00 +15°C° 0.1 mm 5 mps 479 mmHg 40%
    15:00 +15°C° 0.1 mm 6 mps 478 mmHg 42%
    16:00 +14°C° 0.1 mm 7 mps 477 mmHg 45%
    17:00 +14°C° 0.1 mm 7 mps 477 mmHg 48%
    18:00 +11°C° 0.1 mm 7 mps 476 mmHg 54%
    19:00 +10°C° 0.1 mm 7 mps 476 mmHg 60%
    20:00 +8°C° 0.1 mm 7 mps 476 mmHg 66%
    21:00 +8°C° 0 mm 7 mps 476 mmHg 68%
    22:00 +8°C° 0 mm 7 mps 476 mmHg 69%
    23:00 +6°C° 0 mm 7 mps 477 mmHg 71%

    Day after tomorrow, 22 February, Thursday

    Time Temperature Precipitation Wind Pressure Humidity
    00:00 +7°C° 0 mm 6 mps 476 mmHg 71%
    01:00 +7°C° 0 mm 5 mps 476 mmHg 71%
    02:00 +7°C° 0 mm 4 mps 476 mmHg 71%
    03:00 +7°C° 0 mm 4 mps 476 mmHg 71%
    04:00 +8°C° 0 mm 3 mps 476 mmHg 71%
    05:00 +7°C° 0 mm 3 mps 476 mmHg 71%
    06:00 +8°C° 0.1 mm 3 mps 476 mmHg 71%
    07:00 +8°C° 0.1 mm 3 mps 476 mmHg 70%
    08:00 +8°C° 0.1 mm 3 mps 477 mmHg 70%
    09:00 +8°C° 0.2 mm 4 mps 477 mmHg 66%
    10:00 +8°C° 0.2 mm 4 mps 478 mmHg 62%
    11:00 +9°C° 0.2 mm 5 mps 478 mmHg 58%
    12:00 +10°C° 0.1 mm 6 mps 478 mmHg 55%
    13:00 +11°C° 0.1 mm 6 mps 478 mmHg 53%
    14:00 +11°C° 0.1 mm 6 mps 478 mmHg 50%
    15:00 +11°C° 0 mm 7 mps 477 mmHg 51%
    16:00 +11°C° 0 mm 7 mps 477 mmHg 52%
    17:00 +11°C° 0 mm 8 mps 476 mmHg 53%
    18:00 +9°C° 0 mm 8 mps 476 mmHg 58%
    19:00 +7°C° 0 mm 8 mps 476 mmHg 62%
    20:00 +6°C° 0 mm 7 mps 475 mmHg 67%
    21:00 +6°C° 0 mm 7 mps 475 mmHg 69%
    22:00 +5°C° 0 mm 6 mps 476 mmHg 70%
    23:00 +6°C° 0 mm 5 mps 476 mmHg 72%

    23 February, Friday

    Time Temperature Precipitation Wind Pressure Humidity
    00:00 +6°C° 0.1 mm 5 mps 475 mmHg 72%
    01:00 +6°C° 0.1 mm 4 mps 475 mmHg 73%
    02:00 +5°C° 0.1 mm 3 mps 475 mmHg 74%
    03:00 +5°C° 0.1 mm 3 mps 475 mmHg 74%
    04:00 +5°C° 0.1 mm 3 mps 475 mmHg 75%
    05:00 +6°C° 0.1 mm 2 mps 475 mmHg 75%
    06:00 +7°C° 0 mm 2 mps 475 mmHg 74%
    07:00 +7°C° 0 mm 2 mps 475 mmHg 73%
    08:00 +7°C° 0 mm 2 mps 476 mmHg 72%
    09:00 +8°C° 0 mm 3 mps 476 mmHg 66%
    10:00 +9°C° 0 mm 3 mps 477 mmHg 60%
    11:00 +11°C° 0 mm 3 mps 478 mmHg 53%
    12:00 +11°C° 0 mm 4 mps 477 mmHg 51%
    13:00 +12°C° 0 mm 4 mps 477 mmHg 48%
    14:00 +13°C° 0 mm 4 mps 477 mmHg 46%
    15:00 +13°C° 0.1 mm 4 mps 477 mmHg 46%
    16:00 +13°C° 0.1 mm 4 mps 477 mmHg 47%
    17:00 +13°C° 0.1 mm 5 mps 476 mmHg 47%
    18:00 +12°C° 0 mm 5 mps 476 mmHg 52%
    19:00 +9°C° 0 mm 5 mps 476 mmHg 58%
    20:00 +8°C° 0 mm 5 mps 475 mmHg 63%
    21:00 +8°C° 0.1 mm 5 mps 475 mmHg 66%
    22:00 +7°C° 0.1 mm 5 mps 475 mmHg 69%
    23:00 +6°C° 0.1 mm 5 mps 475 mmHg 72%

    24 February, Saturday

    Time Temperature Precipitation Wind Pressure Humidity
    00:00 +6°C° 0.2 mm 4 mps 475 mmHg 73%
    01:00 +6°C° 0.2 mm 4 mps 474 mmHg 74%
    02:00 +5°C° 0.2 mm 3 mps 474 mmHg 75%
    03:00 +5°C° 0 mm 3 mps 474 mmHg 75%
    04:00 +5°C° 0 mm 3 mps 474 mmHg 74%
    05:00 +6°C° 0 mm 2 mps 473 mmHg 74%
    06:00 +6°C° 0 mm 2 mps 474 mmHg 72%
    07:00 +6°C° 0 mm 2 mps 475 mmHg 70%
    08:00 +7°C° 0 mm 2 mps 475 mmHg 67%
    09:00 +8°C° 0 mm 2 mps 476 mmHg 62%
    10:00 +10°C° 0 mm 2 mps 477 mmHg 57%
    11:00 +11°C° 0 mm 3 mps 478 mmHg 51%
    12:00 +12°C° 0.1 mm 3 mps 477 mmHg 49%
    13:00 +13°C° 0.1 mm 4 mps 477 mmHg 47%
    14:00 +13°C° 0.1 mm 4 mps 477 mmHg 45%
    15:00 +13°C° 0.1 mm 5 mps 477 mmHg 46%
    16:00 +13°C° 0.1 mm 5 mps 477 mmHg 48%
    17:00 +13°C° 0.1 mm 6 mps 476 mmHg 49%
    18:00 +11°C° 0.1 mm 6 mps 476 mmHg 54%
    19:00 +9°C° 0.1 mm 7 mps 476 mmHg 59%
    20:00 +8°C° 0.1 mm 7 mps 475 mmHg 64%
    21:00 +7°C° 0 mm 6 mps 475 mmHg 65%
    22:00 +7°C° 0 mm 6 mps 475 mmHg 66%
    23:00 +6°C° 0 mm 5 mps 475 mmHg 68%

    25 February, Sunday

    Time Temperature Precipitation Wind Pressure Humidity
    00:00 +6°C° 0 mm 5 mps 475 mmHg 69%
    01:00 +5°C° 0 mm 4 mps 474 mmHg 70%
    02:00 +4°C° 0 mm 4 mps 474 mmHg 72%
    03:00 +4°C° 0 mm 3 mps 474 mmHg 73%
    04:00 +4°C° 0 mm 3 mps 473 mmHg 74%
    05:00 +3°C° 0 mm 3 mps 473 mmHg 75%
    06:00 +4°C° 0 mm 3 mps 474 mmHg 72%
    07:00 +4°C° 0 mm 3 mps 474 mmHg 69%
    08:00 +5°C° 0 mm 3 mps 475 mmHg 66%
    09:00 +8°C° 0 mm 3 mps 476 mmHg 59%
    10:00 +10°C° 0 mm 3 mps 477 mmHg 51%
    11:00 +11°C° 0 mm 3 mps 479 mmHg 43%
    12:00 +13°C° 0 mm 4 mps 479 mmHg 41%
    13:00 +14°C° 0 mm 4 mps 479 mmHg 38%
    14:00 +15°C° 0 mm 5 mps 479 mmHg 36%
    15:00 +14°C° 0 mm 5 mps 478 mmHg 38%
    16:00 +14°C° 0 mm 5 mps 477 mmHg 40%
    17:00 +14°C° 0 mm 6 mps 477 mmHg 43%
    18:00 +11°C° 0 mm 6 mps 476 mmHg 48%
    19:00 +10°C° 0 mm 5 mps 476 mmHg 54%
    20:00 +9°C° 0 mm 5 mps 476 mmHg 60%
    21:00 +8°C° 0 mm 5 mps 476 mmHg 63%
    22:00 +7°C° 0 mm 5 mps 476 mmHg 66%
    23:00 +7°C° 0 mm 4 mps 476 mmHg 69%
    Show more